Regional Weather Roundup
Issued by NWS

Home | Current Version | Previous Version | Text Only | Print | Product List | Glossary On
Versions: 1 2 3 4 5 6 7 8 9 10 11 12 13 14 15 16 17 18 19 20 21 22 23 24 25 26
000
ASUS44 KLIX 291213
RWRLA
LOUISIANA WEATHER ROUNDUP
NATIONAL WEATHER SERVICE NEW ORLEANS LA
700 AM CDT THU JUN 29 2017

NOTE: "FAIR" INDICATES FEW OR NO CLOUDS BELOW 12,000 FEET WITH NO
      SIGNIFICANT WEATHER AND/OR OBSTRUCTIONS TO VISIBILITY.
      SKY/WX - SKY CONDITION AND SIGNIFICANT WEATHER.
      TMP - AIR TEMPERATURE.    DP   - DEWPOINT TEMPERATURE.
      RH  - RELATIVE HUMIDITY.  PRES - PRESSURE.
      HX  - HEAT INDEX.         WCI  - WIND CHILL INDEX.

*  THESE STATIONS ARE NOT NWS OR FAA STATIONS AND ARE NOT UNDER
   NWS QUALITY CONTROL.

LAZ040-048-061>063-065-066-069-291300-
SOUTHEAST LOUISIANA

CITY           SKY/WX    TMP DP  RH WIND       PRES   REMARKS
N.O. INTL ARPT CLOUDY    73  72  96 SE8       29.99S
6HR MIN TEMP:  73; 6HR MAX TEMP:  77; 6HR PCP:  0.40;

N.O. LAKEFRONT LGT RAIN  73  72  96 SE8       30.01S FOG
6HR MIN TEMP:  73; 6HR MAX TEMP:  80; 6HR PCP:  0.51;

N.O. DOWNTOWN*   N/A     73  70  90 VRB5        N/A
6HR MIN TEMP:  72; 6HR MAX TEMP:  79; 6HR PCP:  1.02;

RESERVE*       CLOUDY    76  73  90 SE10      29.99R
6HR MIN TEMP:  76; 6HR MAX TEMP:  78;

SLIDELL        RAIN      74  72  93 S5        30.01R FOG
6HR MIN TEMP:  73; 6HR MAX TEMP:  76; 6HR PCP:  0.60;

BATON ROUGE    CLOUDY    74  73  97 E5        29.97S FOG
6HR MIN TEMP:  73; 6HR MAX TEMP:  74; 6HR PCP:  0.02;

BOOTHVILLE     CLOUDY    78  76  93 SE6       30.01S
6HR MIN TEMP:  76; 6HR MAX TEMP:  79; 6HR PCP:  0.05;

BELLE CHASSE   LGT RAIN  75  72  90 CALM      29.99S
                                      6HR PCP:  0.08;

BOGALUSA*      CLOUDY    75  71  88 CALM      30.03R
6HR MIN TEMP:  73; 6HR MAX TEMP:  76; 6HR PCP:  0.76;

GALLIANO*      CLOUDY    73  70  91 CALM      30.00R
6HR MIN TEMP:  72; 6HR MAX TEMP:  77; 6HR PCP:  0.23;

NEW ROADS*     HVY RAIN  73  73  98 SE6       29.97R
6HR MIN TEMP:  73; 6HR MAX TEMP:  75;

GONZALES*      LGT RAIN  75  74  96 S8        29.96S
6HR MIN TEMP:  74; 6HR MAX TEMP:  76; 6HR PCP:  0.19;

HAMMOND*       DRIZZLE   73  72  94 S12       29.99S
HOUMA*         MOCLDY    73  73 100 SE7       29.98S
PORT FOURCHON* MOSUNNY   79  73  83 S8G14     29.99S

$$

LAZ041-044-053-054-291300-
SOUTHWEST LOUISIANA

CITY           SKY/WX    TMP DP  RH WIND       PRES   REMARKS
LAKE CHARLES   LGT RAIN  78  32  18 S10       29.90R
                                      6HR PCP:  1.16;

LAFAYETTE      CLOUDY    76  76 100 CALM      29.94S
6HR MIN TEMP:  74; 6HR MAX TEMP:  76; 6HR PCP:  0.19;

PATTERSON      CLOUDY    77  75  93 S5        29.96S
6HR MIN TEMP:  75; 6HR MAX TEMP:  77; 6HR PCP: TRACE;

SALT POINT       N/A     79  75  87 VRB6      29.93S
6HR MIN TEMP:  77; 6HR MAX TEMP:  80;

NEW IBERIA     CLOUDY    77  74  90 SE6       29.95R
6HR MIN TEMP:  74; 6HR MAX TEMP:  77; 6HR PCP:  0.62;

CHENAULT AIRPK TSTM      75  75 100 E12       29.90S FOG

$$

LAZ027-028-291300-
CENTRAL LOUISIANA

CITY           SKY/WX    TMP DP  RH WIND       PRES   REMARKS
FORT POLK      CLOUDY    74  72  94 SE7       29.92R
6HR MIN TEMP:  74; 6HR MAX TEMP:  74;

ALEXANDRIA INT CLOUDY    74  72  93 SE8       29.93R
6HR MIN TEMP:  74; 6HR MAX TEMP:  75; 6HR PCP: TRACE;

ALEXANDRIA     CLOUDY    74  73  97 VRB5      29.95R
6HR MIN TEMP:  71; 6HR MAX TEMP:  74;


$$

LAZ001-002-291300-
NORTHWEST LOUISIANA

CITY           SKY/WX    TMP DP  RH WIND       PRES   REMARKS
SHREVEPORT     CLOUDY    75  73  93 SE8       29.91S
6HR MIN TEMP:  73; 6HR MAX TEMP:  76;

BARKSDALE AFB  PTCLDY    73  73 100 SE7       29.92S
                                      6HR PCP:  0.01;

DTN SHREVEPORT CLOUDY    75  72  90 SE6       29.92S
6HR MIN TEMP:  75; 6HR MAX TEMP:  78;


$$

LAZ014-016-291300-
NORTHEAST LOUISIANA

CITY           SKY/WX    TMP DP  RH WIND       PRES   REMARKS
MONROE         PTCLDY    73  70  90 E3        29.96F
6HR MIN TEMP:  72; 6HR MAX TEMP:  75;

TALLULAH       CLOUDY    74  71  91 SE7       29.98S
6HR MIN TEMP:  72; 6HR MAX TEMP:  74;


$$





USA.gov is the U.S. government's official web portal to all federal, state and local government web resources and services.